• In Hungary
  • List of Countries
  • For 7 days
  • Water Temperature
  • Satellite Maps
  • Weather Map
  • News
  • Weather Widgets
  • user-avatar
    Login

    Hourly Weather Jaú

    Today, 23 May, Wednesday

    Time Temperature Precipitation Wind Pressure Humidity
    00:00 +34°C° 0 mm 2 mps 756 mmHg 27%
    01:00 +34°C° 0 mm 2 mps 755 mmHg 28%
    02:00 +32°C° 0 mm 2 mps 755 mmHg 29%
    03:00 +32°C° 0 mm 2 mps 755 mmHg 32%
    04:00 +32°C° 0 mm 1 mps 755 mmHg 33%
    05:00 +32°C° 0 mm 1 mps 756 mmHg 33%
    06:00 +32°C° 0 mm 1 mps 756 mmHg 33%
    07:00 +33°C° 0 mm 1 mps 756 mmHg 30%
    08:00 +34°C° 0 mm 1 mps 756 mmHg 28%
    09:00 +36°C° 0 mm 1 mps 757 mmHg 28%
    10:00 +36°C° 0 mm 1 mps 757 mmHg 26%
    11:00 +37°C° 0 mm 1 mps 756 mmHg 24%
    12:00 +39°C° 0 mm 2 mps 756 mmHg 22%
    13:00 +40°C° 0 mm 2 mps 756 mmHg 21%
    14:00 +40°C° 0 mm 3 mps 755 mmHg 20%
    15:00 +40°C° 0 mm 3 mps 755 mmHg 19%
    16:00 +40°C° 0 mm 3 mps 755 mmHg 20%
    17:00 +39°C° 0 mm 3 mps 754 mmHg 22%
    18:00 +38°C° 0 mm 3 mps 754 mmHg 23%
    19:00 +37°C° 0 mm 3 mps 754 mmHg 23%
    20:00 +37°C° 0 mm 2 mps 754 mmHg 24%
    21:00 +36°C° 0 mm 2 mps 754 mmHg 24%
    22:00 +36°C° 0 mm 2 mps 754 mmHg 24%
    23:00 +35°C° 0 mm 2 mps 754 mmHg 23%

    Tomorrow, 24 May, Thursday

    Time Temperature Precipitation Wind Pressure Humidity
    00:00 +35°C° 0 mm 2 mps 754 mmHg 23%
    01:00 +34°C° 0 mm 2 mps 754 mmHg 25%
    02:00 +32°C° 0 mm 2 mps 754 mmHg 26%
    03:00 +32°C° 0 mm 1 mps 754 mmHg 28%
    04:00 +32°C° 0 mm 1 mps 754 mmHg 28%
    05:00 +32°C° 0 mm 1 mps 754 mmHg 27%
    06:00 +32°C° 0 mm 1 mps 754 mmHg 26%
    07:00 +35°C° 0 mm 2 mps 754 mmHg 23%
    08:00 +36°C° 0 mm 2 mps 754 mmHg 20%
    09:00 +38°C° 0 mm 2 mps 754 mmHg 17%
    10:00 +39°C° 0 mm 2 mps 754 mmHg 16%
    11:00 +39°C° 0 mm 2 mps 754 mmHg 15%
    12:00 +40°C° 0 mm 2 mps 754 mmHg 13%
    13:00 +40°C° 0 mm 2 mps 753 mmHg 13%
    14:00 +42°C° 0 mm 3 mps 753 mmHg 13%
    15:00 +42°C° 0 mm 3 mps 752 mmHg 13%
    16:00 +40°C° 0 mm 3 mps 752 mmHg 14%
    17:00 +39°C° 0 mm 3 mps 752 mmHg 16%
    18:00 +38°C° 0 mm 3 mps 752 mmHg 18%
    19:00 +37°C° 0 mm 3 mps 752 mmHg 20%
    20:00 +37°C° 0 mm 3 mps 752 mmHg 22%
    21:00 +36°C° 0 mm 2 mps 753 mmHg 24%
    22:00 +35°C° 0 mm 2 mps 752 mmHg 24%
    23:00 +35°C° 0 mm 2 mps 752 mmHg 24%

    Day after tomorrow, 25 May, Friday

    Time Temperature Precipitation Wind Pressure Humidity
    00:00 +35°C° 0 mm 2 mps 752 mmHg 24%
    01:00 +34°C° 0 mm 2 mps 751 mmHg 24%
    02:00 +34°C° 0 mm 2 mps 751 mmHg 24%
    03:00 +32°C° 0 mm 2 mps 751 mmHg 24%
    04:00 +34°C° 0 mm 2 mps 751 mmHg 25%
    05:00 +34°C° 0 mm 2 mps 751 mmHg 26%
    06:00 +34°C° 0 mm 2 mps 752 mmHg 27%
    07:00 +35°C° 0 mm 2 mps 752 mmHg 25%
    08:00 +36°C° 0 mm 2 mps 752 mmHg 24%
    09:00 +37°C° 0 mm 2 mps 753 mmHg 22%
    10:00 +38°C° 0 mm 2 mps 753 mmHg 20%
    11:00 +39°C° 0 mm 2 mps 752 mmHg 19%
    12:00 +40°C° 0 mm 2 mps 752 mmHg 17%
    13:00 +40°C° 0 mm 2 mps 752 mmHg 16%
    14:00 +42°C° 0 mm 3 mps 751 mmHg 16%
    15:00 +42°C° 0 mm 3 mps 751 mmHg 15%
    16:00 +41°C° 0 mm 4 mps 751 mmHg 19%
    17:00 +40°C° 0 mm 5 mps 751 mmHg 23%
    18:00 +39°C° 0 mm 6 mps 751 mmHg 27%
    19:00 +38°C° 0 mm 6 mps 751 mmHg 28%
    20:00 +38°C° 0 mm 6 mps 752 mmHg 29%
    21:00 +36°C° 0 mm 6 mps 752 mmHg 29%
    22:00 +35°C° 0 mm 5 mps 752 mmHg 31%
    23:00 +35°C° 0 mm 5 mps 752 mmHg 33%

    26 May, Saturday

    Time Temperature Precipitation Wind Pressure Humidity
    00:00 +34°C° 0 mm 5 mps 751 mmHg 35%
    01:00 +34°C° 0 mm 4 mps 751 mmHg 36%
    02:00 +34°C° 0 mm 4 mps 751 mmHg 37%
    03:00 +33°C° 0 mm 3 mps 751 mmHg 38%
    04:00 +33°C° 0 mm 3 mps 752 mmHg 39%
    05:00 +33°C° 0 mm 3 mps 752 mmHg 41%
    06:00 +33°C° 0 mm 3 mps 753 mmHg 43%
    07:00 +34°C° 0 mm 3 mps 753 mmHg 40%
    08:00 +35°C° 0 mm 3 mps 754 mmHg 37%
    09:00 +36°C° 0 mm 3 mps 754 mmHg 35%
    10:00 +37°C° 0 mm 2 mps 754 mmHg 32%
    11:00 +38°C° 0 mm 2 mps 754 mmHg 29%
    12:00 +39°C° 0 mm 1 mps 753 mmHg 26%
    13:00 +39°C° 0 mm 2 mps 753 mmHg 25%
    14:00 +40°C° 0 mm 3 mps 752 mmHg 24%
    15:00 +41°C° 0 mm 4 mps 752 mmHg 22%
    16:00 +40°C° 0 mm 4 mps 752 mmHg 27%
    17:00 +39°C° 0 mm 5 mps 752 mmHg 32%
    18:00 +37°C° 0 mm 5 mps 753 mmHg 37%
    19:00 +36°C° 0 mm 5 mps 753 mmHg 39%
    20:00 +36°C° 0 mm 5 mps 753 mmHg 40%
    21:00 +35°C° 0 mm 5 mps 754 mmHg 42%
    22:00 +35°C° 0 mm 5 mps 754 mmHg 43%
    23:00 +35°C° 0 mm 5 mps 754 mmHg 44%

    27 May, Sunday

    Time Temperature Precipitation Wind Pressure Humidity
    00:00 +34°C° 0 mm 5 mps 753 mmHg 44%
    01:00 +34°C° 0 mm 6 mps 753 mmHg 49%
    02:00 +33°C° 0 mm 6 mps 753 mmHg 54%
    03:00 +33°C° 0 mm 6 mps 753 mmHg 58%
    04:00 +32°C° 0 mm 6 mps 753 mmHg 60%
    05:00 +32°C° 0 mm 5 mps 754 mmHg 62%
    06:00 +32°C° 0 mm 5 mps 754 mmHg 63%
    07:00 +33°C° 0 mm 5 mps 754 mmHg 57%
    08:00 +35°C° 0 mm 5 mps 755 mmHg 50%
    09:00 +36°C° 0 mm 5 mps 755 mmHg 43%
    10:00 +37°C° 0 mm 5 mps 755 mmHg 41%
    11:00 +38°C° 0 mm 4 mps 754 mmHg 39%
    12:00 +38°C° 0 mm 4 mps 754 mmHg 36%
    13:00 +39°C° 0 mm 5 mps 753 mmHg 36%
    14:00 +39°C° 0 mm 5 mps 753 mmHg 37%
    15:00 +40°C° 0 mm 5 mps 753 mmHg 37%
    16:00 +39°C° 0 mm 5 mps 753 mmHg 40%
    17:00 +37°C° 0 mm 5 mps 753 mmHg 43%
    18:00 +36°C° 0 mm 4 mps 753 mmHg 46%
    19:00 +35°C° 0 mm 4 mps 754 mmHg 47%
    20:00 +35°C° 0 mm 3 mps 754 mmHg 48%
    21:00 +35°C° 0 mm 3 mps 754 mmHg 50%
    22:00 +34°C° 0 mm 3 mps 754 mmHg 51%
    23:00 +34°C° 0 mm 3 mps 753 mmHg 51%

    28 May, Monday

    Time Temperature Precipitation Wind Pressure Humidity
    00:00 +34°C° 0 mm 4 mps 753 mmHg 52%
    01:00 +34°C° 0.1 mm 4 mps 753 mmHg 53%
    02:00 +33°C° 0.1 mm 4 mps 753 mmHg 54%
    03:00 +33°C° 0.1 mm 4 mps 753 mmHg 54%
    04:00 +33°C° 0 mm 4 mps 753 mmHg 54%
    05:00 +33°C° 0 mm 4 mps 754 mmHg 54%
    06:00 +33°C° 0 mm 4 mps 754 mmHg 54%
    07:00 +35°C° 0 mm 4 mps 754 mmHg 49%
    08:00 +36°C° 0 mm 4 mps 754 mmHg 43%
    09:00 +39°C° 0 mm 5 mps 754 mmHg 38%
    10:00 +40°C° 0 mm 5 mps 754 mmHg 36%
    11:00 +41°C° 0 mm 5 mps 754 mmHg 35%
    12:00 +41°C° 0 mm 5 mps 753 mmHg 33%
    13:00 +42°C° 0 mm 6 mps 753 mmHg 33%
    14:00 +42°C° 0 mm 6 mps 753 mmHg 32%
    15:00 +42°C° 0 mm 6 mps 752 mmHg 32%
    16:00 +41°C° 0 mm 6 mps 752 mmHg 35%
    17:00 +40°C° 0 mm 6 mps 753 mmHg 39%
    18:00 +39°C° 0 mm 5 mps 753 mmHg 42%
    19:00 +37°C° 0 mm 5 mps 753 mmHg 46%
    20:00 +36°C° 0 mm 5 mps 753 mmHg 49%
    21:00 +35°C° 0 mm 4 mps 753 mmHg 53%
    22:00 +35°C° 0.2 mm 4 mps 753 mmHg 53%
    23:00 +35°C° 0.2 mm 3 mps 752 mmHg 53%
    Show more